Previsão horária em Abadan

Hoje, 16 Janeiro, Sábado

Tempo Temperatura Precipitação Vento Pressão Humidade
00:00 +14°C° 0 mm 0 m/s 761 mmHg 60%
01:00 +15°C° 0 mm 1 m/s 760 mmHg 60%
02:00 +15°C° 0 mm 1 m/s 760 mmHg 59%
03:00 +15°C° 0 mm 2 m/s 760 mmHg 57%
04:00 +15°C° 0 mm 2 m/s 760 mmHg 63%
05:00 +14°C° 0 mm 2 m/s 761 mmHg 68%
06:00 +14°C° 0 mm 1 m/s 761 mmHg 74%
07:00 +15°C° 0 mm 2 m/s 761 mmHg 71%
08:00 +16°C° 0 mm 2 m/s 761 mmHg 68%
09:00 +18°C° 0 mm 3 m/s 762 mmHg 65%
10:00 +19°C° 0 mm 3 m/s 761 mmHg 58%
11:00 +20°C° 0 mm 2 m/s 761 mmHg 51%
12:00 +21°C° 0 mm 2 m/s 761 mmHg 44%
13:00 +23°C° 0 mm 2 m/s 760 mmHg 41%
14:00 +23°C° 0 mm 2 m/s 760 mmHg 37%
15:00 +24°C° 0 mm 2 m/s 759 mmHg 33%
16:00 +23°C° 0 mm 1 m/s 759 mmHg 36%
17:00 +22°C° 0 mm 1 m/s 759 mmHg 38%
18:00 +21°C° 0 mm 1 m/s 759 mmHg 41%
19:00 +20°C° 0 mm 2 m/s 759 mmHg 40%
20:00 +19°C° 0 mm 3 m/s 760 mmHg 40%
21:00 +19°C° 0 mm 3 m/s 760 mmHg 40%
22:00 +19°C° 0 mm 3 m/s 760 mmHg 43%
23:00 +18°C° 0 mm 2 m/s 760 mmHg 45%

Amanhã, 17 Janeiro, Domingo

Tempo Temperatura Precipitação Vento Pressão Humidade
00:00 +19°C° 0 mm 1 m/s 759 mmHg 48%
01:00 +16°C° 0 mm 0 m/s 759 mmHg 49%
02:00 +16°C° 0 mm 0 m/s 759 mmHg 50%
03:00 +16°C° 0 mm 0 m/s 759 mmHg 51%
04:00 +18°C° 0 mm 1 m/s 759 mmHg 52%
05:00 +16°C° 0 mm 1 m/s 759 mmHg 52%
06:00 +16°C° 0 mm 1 m/s 759 mmHg 52%
07:00 +18°C° 0 mm 1 m/s 760 mmHg 51%
08:00 +19°C° 0 mm 1 m/s 760 mmHg 49%
09:00 +19°C° 0 mm 1 m/s 760 mmHg 47%
10:00 +20°C° 0 mm 1 m/s 760 mmHg 44%
11:00 +21°C° 0 mm 1 m/s 760 mmHg 41%
12:00 +22°C° 0 mm 1 m/s 760 mmHg 39%
13:00 +22°C° 0 mm 1 m/s 759 mmHg 37%
14:00 +23°C° 0 mm 1 m/s 759 mmHg 36%
15:00 +21°C° 0 mm 0 m/s 758 mmHg 35%
16:00 +23°C° 0 mm 1 m/s 759 mmHg 38%
17:00 +22°C° 0 mm 1 m/s 759 mmHg 41%
18:00 +21°C° 0 mm 1 m/s 759 mmHg 44%
19:00 +20°C° 0 mm 1 m/s 759 mmHg 46%
20:00 +20°C° 0 mm 1 m/s 759 mmHg 48%
21:00 +18°C° 0 mm 2 m/s 760 mmHg 50%
22:00 +18°C° 0 mm 2 m/s 760 mmHg 51%
23:00 +18°C° 0 mm 2 m/s 760 mmHg 52%

Depois de amanhã, 18 Janeiro, Segunda-feira

Tempo Temperatura Precipitação Vento Pressão Humidade
00:00 +17°C° 0 mm 2 m/s 760 mmHg 53%
01:00 +17°C° 0 mm 2 m/s 760 mmHg 55%
02:00 +17°C° 0 mm 2 m/s 760 mmHg 57%
03:00 +16°C° 0 mm 2 m/s 760 mmHg 58%
04:00 +16°C° 0 mm 2 m/s 760 mmHg 59%
05:00 +16°C° 0 mm 2 m/s 760 mmHg 60%
06:00 +15°C° 0 mm 2 m/s 761 mmHg 60%
07:00 +16°C° 0 mm 2 m/s 761 mmHg 55%
08:00 +17°C° 0 mm 3 m/s 762 mmHg 50%
09:00 +18°C° 0 mm 3 m/s 762 mmHg 44%
10:00 +19°C° 0 mm 4 m/s 762 mmHg 40%
11:00 +21°C° 0 mm 4 m/s 763 mmHg 36%
12:00 +22°C° 0 mm 5 m/s 763 mmHg 32%
13:00 +22°C° 0 mm 5 m/s 763 mmHg 30%
14:00 +23°C° 0 mm 5 m/s 762 mmHg 28%
15:00 +23°C° 0 mm 6 m/s 762 mmHg 26%
16:00 +22°C° 0 mm 5 m/s 762 mmHg 27%
17:00 +21°C° 0 mm 4 m/s 763 mmHg 28%
18:00 +20°C° 0 mm 3 m/s 763 mmHg 29%
19:00 +20°C° 0 mm 3 m/s 763 mmHg 30%
20:00 +19°C° 0 mm 3 m/s 764 mmHg 31%
21:00 +19°C° 0 mm 3 m/s 764 mmHg 31%
22:00 +18°C° 0 mm 3 m/s 764 mmHg 33%
23:00 +18°C° 0 mm 3 m/s 764 mmHg 34%

19 Janeiro, Terça-feira

Tempo Temperatura Precipitação Vento Pressão Humidade
00:00 +17°C° 0 mm 4 m/s 764 mmHg 36%
01:00 +17°C° 0 mm 4 m/s 764 mmHg 37%
02:00 +15°C° 0 mm 4 m/s 764 mmHg 38%
03:00 +15°C° 0 mm 4 m/s 764 mmHg 40%
04:00 +14°C° 0 mm 3 m/s 764 mmHg 41%
05:00 +14°C° 0 mm 3 m/s 764 mmHg 42%
06:00 +13°C° 0 mm 3 m/s 764 mmHg 43%
07:00 +14°C° 0 mm 3 m/s 764 mmHg 40%
08:00 +16°C° 0 mm 3 m/s 765 mmHg 38%
09:00 +18°C° 0 mm 2 m/s 765 mmHg 36%
10:00 +19°C° 0 mm 2 m/s 765 mmHg 33%
11:00 +20°C° 0 mm 2 m/s 764 mmHg 30%
12:00 +21°C° 0 mm 2 m/s 764 mmHg 28%
13:00 +21°C° 0 mm 2 m/s 763 mmHg 27%
14:00 +21°C° 0 mm 2 m/s 763 mmHg 26%
15:00 +23°C° 0 mm 2 m/s 762 mmHg 25%
16:00 +21°C° 0 mm 2 m/s 762 mmHg 26%
17:00 +20°C° 0 mm 2 m/s 762 mmHg 28%
18:00 +20°C° 0 mm 2 m/s 762 mmHg 30%
19:00 +19°C° 0 mm 2 m/s 763 mmHg 31%
20:00 +19°C° 0 mm 2 m/s 763 mmHg 33%
21:00 +18°C° 0 mm 2 m/s 763 mmHg 34%
22:00 +18°C° 0 mm 1 m/s 763 mmHg 36%
23:00 +18°C° 0 mm 1 m/s 763 mmHg 38%

20 Janeiro, Quarta-feira

Tempo Temperatura Precipitação Vento Pressão Humidade
00:00 +16°C° 0 mm 1 m/s 763 mmHg 39%
01:00 +16°C° 0 mm 1 m/s 763 mmHg 40%
02:00 +16°C° 0 mm 1 m/s 762 mmHg 40%
03:00 +15°C° 0 mm 1 m/s 762 mmHg 40%
04:00 +15°C° 0 mm 1 m/s 762 mmHg 41%
05:00 +15°C° 0 mm 2 m/s 762 mmHg 41%
06:00 +15°C° 0 mm 2 m/s 762 mmHg 41%
07:00 +16°C° 0 mm 3 m/s 762 mmHg 38%
08:00 +17°C° 0 mm 3 m/s 762 mmHg 35%
09:00 +19°C° 0 mm 3 m/s 762 mmHg 32%
10:00 +20°C° 0 mm 4 m/s 762 mmHg 29%
11:00 +21°C° 0 mm 4 m/s 761 mmHg 26%
12:00 +23°C° 0 mm 5 m/s 761 mmHg 23%
13:00 +23°C° 0 mm 5 m/s 760 mmHg 23%
14:00 +23°C° 0 mm 5 m/s 760 mmHg 23%
15:00 +23°C° 0 mm 6 m/s 759 mmHg 23%
16:00 +22°C° 0 mm 5 m/s 759 mmHg 29%
17:00 +20°C° 0 mm 4 m/s 759 mmHg 36%
18:00 +19°C° 0 mm 4 m/s 759 mmHg 42%
19:00 +19°C° 0 mm 3 m/s 759 mmHg 46%
20:00 +19°C° 0 mm 3 m/s 759 mmHg 50%
21:00 +18°C° 0 mm 3 m/s 760 mmHg 55%
22:00 +17°C° 0 mm 5 m/s 760 mmHg 49%
23:00 +17°C° 0 mm 7 m/s 761 mmHg 43%

21 Janeiro, Quinta-feira

Tempo Temperatura Precipitação Vento Pressão Humidade
00:00 +17°C° 0 mm 10 m/s 761 mmHg 37%
01:00 +16°C° 0 mm 9 m/s 762 mmHg 41%
02:00 +15°C° 0 mm 7 m/s 762 mmHg 46%
03:00 +14°C° 0 mm 6 m/s 763 mmHg 50%
04:00 +14°C° 0 mm 6 m/s 763 mmHg 51%
05:00 +13°C° 0 mm 5 m/s 764 mmHg 53%
06:00 +13°C° 0 mm 5 m/s 764 mmHg 54%
07:00 +13°C° 0 mm 5 m/s 765 mmHg 49%
08:00 +14°C° 0 mm 6 m/s 766 mmHg 45%
09:00 +14°C° 0 mm 7 m/s 767 mmHg 40%
10:00 +15°C° 0 mm 7 m/s 767 mmHg 38%
11:00 +16°C° 0 mm 7 m/s 767 mmHg 37%
12:00 +17°C° 0 mm 6 m/s 767 mmHg 35%
13:00 +17°C° 0 mm 7 m/s 767 mmHg 36%
14:00 +17°C° 0 mm 7 m/s 767 mmHg 37%
15:00 +17°C° 0 mm 8 m/s 766 mmHg 37%
16:00 +16°C° 0 mm 8 m/s 767 mmHg 35%
17:00 +15°C° 0 mm 8 m/s 767 mmHg 33%
18:00 +14°C° 0 mm 7 m/s 767 mmHg 31%
19:00 +14°C° 0 mm 7 m/s 768 mmHg 29%
20:00 +12°C° 0 mm 7 m/s 768 mmHg 26%
21:00 +11°C° 0 mm 7 m/s 768 mmHg 23%
22:00 +10°C° 0 mm 7 m/s 768 mmHg 24%
23:00 +10°C° 0 mm 7 m/s 768 mmHg 25%
Mostrar mais